Regional Weather Roundup
Issued by NWS

Home | Current Version | Previous Version | Graphics & Text | Print | Product List | Glossary On
Versions: 1 2 3 4 5 6 7 8 9 10 11 12 13 14 15 16 17 18 19 20 21 22 23 24 25 26 27 28 29 30 31 32 33 34 35 36 37 38 39 40 41 42 43 44 45 46 47 48 49 50
104
ASUS43 KMKX 071300
RWRWI

WISCONSIN REGIONAL WEATHER ROUNDUP
NATIONAL WEATHER SERVICE MILWAUKEE/SULLIVAN WI
700 AM CST WED DEC 07 2016

NOTE: "FAIR" INDICATES FEW OR NO CLOUDS BELOW 12,000 FEET WITH NO
SIGNIFICANT WEATHER AND/OR OBSTRUCTIONS TO VISIBILITY.

WIZ001-002-006>008-014>016-023>028-071400-
NORTHWEST WISCONSIN

CITY           SKY/WX    TMP DP  RH WIND       PRES   REMARKS
SUPERIOR ARPT  MOCLDY    18  11  74 W15G23    29.76R WCI   4
ASHLAND        CLOUDY    20  11  68 SW24G32   29.75R WCI   3
HAYWARD        FLURRIES  16   8  71 SW14G22   29.80R WCI   2
SIREN          LGT SNOW  16  10  77 W15G26    29.86R WCI   2
CUMBERLAND     FLURRIES  18  10  73 W18G25    29.85R WCI   2
RICE LAKE      FLURRIES  18  11  76 W16G22    29.89R WCI   3
CHETEK         FLURRIES  17  11  75 MISG      29.88R
LADYSMITH      LGT SNOW  18  12  77 W20G28    29.85R WCI   2
EAU CLAIRE     NOT AVBL
MENOMONIE      FLURRIES  17  11  77 SW16G25   29.95R WCI   2
NEW RICHMOND   FLURRIES  17  10  72 W17G25    29.92R WCI   1
OSCEOLA        CLOUDY    18  11  73 W25G31    29.96R WCI   0
$$

WIZ003>005-009-010-017-018-071400-
NORTH CENTRAL WISCONSIN

CITY           SKY/WX    TMP DP  RH WIND       PRES   REMARKS
MANITOWISH WTR LGT SNOW  17  13  86 SW15      29.70R WCI   2
ARBOR VITAE    LGT SNOW  19  15  82 W15G26    29.73R WCI   5
WOODRUFF       LGT SNOW  19  15  82 W15G26    29.73R WCI   5
RHINELANDER    LGT SNOW  17  12  80 SW18G26   29.76R WCI   1
EAGLE RIVER    LGT SNOW  17  11  80 SW20G29   29.72R WCI   0
LAND O LAKES   LGT SNOW  18  13  80 SW12G24   29.70R WCI   6
PHILLIPS       LGT SNOW  16  11  82 SW16G26   29.77R WCI   0
TOMAHAWK       LGT SNOW  16  11  82 W8G16     29.79R WCI   5
MEDFORD        LGT SNOW  15  10  81 W21G29    29.83R WCI  -3
MERRILL        LGT SNOW  17  12  80 W20G25    29.83R WCI   0
$$

WIZ029-030-035-036-043>047-071400-
CENTRAL WISCONSIN

CITY           SKY/WX    TMP DP  RH WIND       PRES   REMARKS
WAUSAU         LGT SNOW  17  11  77 W17G26    29.86R WCI   1
MOSINEE        NOT AVBL
MARSHFIELD     FLURRIES  16  10  77 W18G28    29.88R WCI   0
STEVENS POINT  FLURRIES  17  11  77 SW16G24   29.90R WCI   1
WAUPACA        MOCLDY    22  15  74 SW13G20   29.92R WCI  10
WAUTOMA        FLURRIES  18  13  80 SW13      29.95R WCI   5
WISC RAPIDS    CLOUDY    18  12  77 W14G22    29.94R WCI   4
CAMP DOUGLAS   NOT AVBL
$$

WIZ011>013-019>022-031-037>040-048>050-071400-
NORTHEAST WISCONSIN

CITY           SKY/WX    TMP DP  RH WIND       PRES   REMARKS
ANTIGO         FLURRIES  16  12  84 W15G31    29.80R WCI   1
SHAWANO        CLOUDY    22  14  70 W18G26    29.87S WCI   8
OCONTO         MOCLDY    22  13  67 W16G32    29.86R WCI   8
STURGEON BAY   CLOUDY    24  17  74 SW17G26   29.84R WCI  11
GREEN BAY      PTCLDY    23  16  74 SW15G23   29.89R WCI  10
MANITOWOC      PTCLDY    23  16  74 W12G20    29.90R WCI  12
APPLETON       PTCLDY    19  12  73 SW14G21   29.89R WCI   6
CLINTONVILLE   CLOUDY    21  14  73 W14G25    29.89R WCI   8
OSHKOSH        CLEAR     21  14  74 W13G22    29.91S WCI   9
$$

WIZ032>034-041-042-053>061-071400-
SOUTHWEST WISCONSIN

CITY           SKY/WX    TMP DP  RH WIND       PRES   REMARKS
LA CROSSE      CLOUDY    19  10  68 SW16      30.04R WCI   4
SPARTA         FLURRIES  18  12  78 W12G20    30.01R WCI   5
VIROQUA        CLOUDY    15  10  81 W20G30    30.00R WCI  -2
BOSCOBEL       CLOUDY    19  10  68 W12       30.08R WCI   7
PRAIRIE DU CHI CLOUDY    19  10  70 W10G20    30.10R WCI   7
PLATTEVILLE    CLOUDY    18  13  80 W16G22    30.06R WCI   3
$$

WIZ056-057-062-063-064-067-068-071400-
SOUTH CENTRAL WISCONSIN

CITY           SKY/WX    TMP DP  RH WIND       PRES   REMARKS
REEDSBURG      CLOUDY    17  12  79 W14G22    30.01R WCI   3
BARABOO/DELLS  CLOUDY    17  11  77 W15G24    29.97R WCI   3
LONE ROCK      PTCLDY    19  10  68 W15G28    30.05R WCI   5
MINERAL POINT  CLOUDY    21  18  86 W16       30.02R WCI   7
MADISON        MOCLDY    19  12  74 W9G21     30.01R WCI   8
MIDDLETON      NOT AVBL
WATERTOWN      PTCLDY    20  15  80 SW10G18   29.99R WCI   9
MONROE         CLOUDY    21  16  79 W17G25    30.03R WCI   7
JANESVILLE     MOCLDY    21  16  79 W16G22    30.04R WCI   7
$$

WIZ051-052-058>065-066-070>072-071400-
SOUTHEAST WISCONSIN

CITY           SKY/WX    TMP DP  RH WIND       PRES   REMARKS
MILWAUKEE      MOCLDY    23  14  68 W16G22    30.00R WCI  10
WAUKESHA       MOCLDY    19  14  79 W16G24    30.00R WCI   5
MILWAUKEE/TIMM NOT AVBL
RACINE         CLOUDY    23  15  71 W13G24    30.02R WCI  11
BURLINGTON     PTCLDY    21  16  79 W9        30.02R WCI  11
KENOSHA        CLOUDY    23  16  74 W17       30.02R WCI   9
FOND DU LAC    PTCLDY    22  13  68 W14G22    29.94R WCI   9
SHEBOYGAN      PTCLDY    22  15  75 W20G29    29.92R WCI   7
WEST BEND      PTCLDY    21  18  86 W13G23    29.95R WCI   9
JUNEAU         CLOUDY    19  14  79 SW17      29.98R WCI   4
$$

LSZ147-162-071400-
LAKE SUPERIOR

STATION/POSITION TIME  TEMP    WIND        PRES    WAVE
                       AIR SEA DIR/SP/G            HT/PER
                 (UTC) (F)     (DEG/KT/KT) (MB)    (FT/S)
DEVILS ISLAND    1200   26     250/ 30/ 38 1004.6R
PORT WING        1230   21     240/ 14/ 23 1007.5R
SAXON HARBOR     1240   22     220/ 13/ 23 1007.1R
$$

LMZ867-665-643>646-071400-
LAKE MICHIGAN

STATION/POSITION TIME  TEMP    WIND        PRES    WAVE
                       AIR SEA DIR/SP/G            HT/PER
                 (UTC) (F)     (DEG/KT/KT) (MB)    (FT/S)
CHAMBERS ISLAND  1230   25     220/ 12/ 23 1009.5R
NORTHPORT PIER   1240   25     260/  9/ 19 1009.8R
SISTER BAY       1209   28     270/ 25/ 31   N/A
ALGOMA LAKESHORE 1221          280/ 15/ 26   N/A
KEWAUNEE LAKESHO 1230   23     270/ 17/ 23 1011.5R
SHEBOYGAN LAKESH 1200   24     250/ 18/ 22 1013.5R
PORT WASHINGTON  1240   23     260/ 12/ 20 1015.2R
MILWAUKEE LAKESH 1230   24     270/ 11/ 15   N/A
KENOSHA   LAKESH 1200   24     260/ 15/ 24 1015.9
$$

TC  - TEMPERATURE IN CELSIUS
VSB - VISIBILITY IN STATUTE MILES
WCI - WIND CHILL INDEX
HX  - HEAT INDEX





USA.gov is the U.S. government's official web portal to all federal, state and local government web resources and services.